KC4KQE Weather Reports


Display with metric or nautical units.
time (UTC)temp
F
wind
direction
speed
MPH
gust
MPH
rain 1hr
in
rain 24hr
in
rain mn
in
humidity
%
barometer
mb
20181216050947 52 48 0.0 0.0 0.00 0.00 0.00 25 1019.8
20181216045950 52 48 0.0 0.0 0.00 0.00 0.00 24 1019.6
20181216040447 52 47 0.0 0.0 0.00 0.00 0.00 24 1019.6
20181216032447 53 47 0.0 0.0 0.00 0.00 0.00 24 1019.8
20181216031447 54 47 0.0 0.0 0.00 0.00 0.00 23 1019.8
20181216024947 55 48 0.0 0.0 0.00 0.00 0.00 21 1019.5
20181216022947 57 47 0.0 0.0 0.00 0.00 0.00 19 1019.4
20181216020947 58 47 0.0 0.0 0.00 0.00 0.00 19 1019.2
20181216020447 58 47 0.0 3.0 0.00 0.00 0.00 19 1019.2
20181216014447 60 88 0.0 0.0 0.00 0.00 0.00 21 1019.1
20181216003947 64 131 2.0 5.0 0.00 0.00 0.00 19 1018.1
20181216003447 64 119 2.0 3.0 0.00 0.00 0.00 20 1018.0
20181215235947 67 22 0.0 4.0 0.00 0.00 0.00 14 1017.2
20181215233447 68 57 0.0 0.0 0.00 0.00 0.00 17 1016.9
20181215232447 68 57 0.0 5.0 0.00 0.00 0.00 14 1016.9
20181215224447 68 39 0.0 5.0 0.00 0.00 0.00 15 1016.9
20181215222447 69 26 3.0 10.0 0.00 0.00 0.00 14 1017.1
20181215220447 70 355 6.0 9.0 0.00 0.00 0.00 13 1017.2
20181215212447 70 196 0.0 0.0 0.00 0.00 0.00 10 1017.5
20181215205947 69 207 0.0 0.0 0.00 0.00 0.00 12 1017.7
20181215205447 69 220 0.0 4.0 0.00 0.00 0.00 12 1017.7
20181215204447 69 214 0.0 1.0 0.00 0.00 0.00 12 1017.8
20181215203447 70 269 3.0 3.0 0.00 0.00 0.00 13 1017.9
20181215185447 63 141 0.0 4.0 0.00 0.00 0.00 19 1019.2
20181215183450 61 51 0.0 0.0 0.00 0.00 0.00 20 1019.3
20181215173947 58 36 0.0 1.0 0.00 0.00 0.00 22 1020.2
20181215173447 58 36 0.0 1.0 0.00 0.00 0.00 22 1020.3
20181215171447 56 139 0.0 0.0 0.00 0.00 0.00 24 1020.6
20181215152947 54 37 0.0 0.0 0.00 0.00 0.00 23 1018.4
20181215150447 54 24 0.0 0.0 0.00 0.00 0.00 22 1018.6
20181215142447 50 46 2.0 2.0 0.00 0.00 0.00 28 1018.8
20181215130447 48 47 0.0 0.0 0.00 0.00 0.00 36 1018.9
20181215124947 48 47 0.0 0.0 0.00 0.00 0.00 36 1018.8
20181215121447 48 47 0.0 0.0 0.00 0.00 0.00 36 1019.2
20181215115947 48 47 0.0 0.0 0.00 0.00 0.00 34 1019.1
20181215115447 48 47 0.0 0.0 0.00 0.00 0.00 35 1019.1
20181215112947 49 47 0.0 0.0 0.00 0.00 0.00 34 1019.0
20181215110950 49 47 0.0 0.0 0.00 0.00 0.00 30 1019.1
20181215110447 49 47 0.0 0.0 0.00 0.00 0.00 31 1019.1
20181215104947 48 47 0.0 0.0 0.00 0.00 0.00 31 1019.2
20181215094447 49 48 0.0 0.0 0.00 0.00 0.00 30 1019.1
20181215084447 49 48 0.0 0.0 0.00 0.00 0.00 31 1019.3
20181215083947 49 48 0.0 0.0 0.00 0.00 0.00 30 1019.3
20181215082947 49 48 0.0 0.0 0.00 0.00 0.00 28 1019.2
20181215082447 49 48 0.0 0.0 0.00 0.00 0.00 27 1019.2
20181215080447 49 48 0.0 0.0 0.00 0.00 0.00 28 1019.8
20181215071947 48 47 0.0 0.0 0.00 0.00 0.00 30 1020.2
20181215064947 48 47 0.0 0.0 0.00 0.00 0.00 29 1020.1
20181215055947 50 49 0.0 0.0 0.00 0.00 0.00 25 1020.1
20181215055447 50 50 0.0 0.0 0.00 0.00 0.00 25 1020.3